Regional Weather Roundup
Issued by NWS Newport/Morehead, NC

Current Version | Previous Version | Graphics & Text | Print | Product List | Glossary Off
Versions: 1 2 3 4 5 6 7 8 9 10 11 12 13 14 15 16 17 18 19 20 21 22 23 24 25 26 27 28 29 30 31 32 33 34 35 36 37 38 39 40 41 42 43 44 45 46 47 48 49 50

000
ASUS42 KMHX 211025
RWRMHX
WEATHER ROUNDUP FOR EASTERN NORTH CAROLINA
NATIONAL WEATHER SERVICE NEWPORT/MOREHEAD CITY NC
600 AM EDT SAT OCT 21 2017

NOTE: "FAIR" INDICATES FEW OR NO CLOUDS BELOW 12,000 FEET
WITH NO SIGNIFICANT WEATHER AND/OR OBSTRUCTIONS TO VISIBILITY

NCZ015>017-031-032-045>047-102-103-211100-
NORTH COAST

CITY           SKY/WX    TMP DP  RH WIND       PRES   REMARKS
EDENTON        CLEAR     53  51  94 CALM      30.28R
ELIZABETH CITY FOG       51  51 100 CALM      30.27R VSB 1/4
KITTY HAWK     SUNNY    N/A N/A N/A CALM      30.25S
MANTEO         FOG      N/A N/A N/A CALM      30.27R VSB 1/2

$$

NCZ045>047-081-094-103-104-211100-
CENTRAL COAST

CITY           SKY/WX    TMP DP  RH WIND       PRES   REMARKS
FRISCO         CLEAR     60  60 100 CALM      30.26R

$$

NCZ095-097-098-100-101-211100-
SOUTHERN COAST

CITY           SKY/WX    TMP DP  RH WIND       PRES   REMARKS
BEAUFORT       CLEAR     54  52  93 CALM      30.26R
CEDAR ISLAND   NOT AVBL
JACKSONVILLE   CLEAR     52  52 100 CALM      30.26R
PINEY ISLAND     N/A    N/A N/A N/A N5        30.26R
WILMINGTON     CLEAR     52  51  97 NE3       30.26R


$$

NCZ011>013-027>030-043-044-078>080-089-090>093-098-211100-
COASTAL PLAIN

CITY           SKY/WX    TMP DP  RH WIND       PRES   REMARKS
AHOSKIE        CLEAR     47  47 100 CALM      30.28S FOG
CLINTON        CLEAR     49  49 100 CALM      30.28R
ELIZABETHTOWN  NOT AVBL
GOLDSBORO      CLEAR     50  48  94 CALM      30.26R FOG
GREENVILLE     FOG       48  48 100 CALM      30.28R VSB 3/4
HAVELOCK       CLEAR     52  32  46 CALM      30.27R
KENANSVILLE    CLEAR     45  45 100 CALM      30.28R FOG
KINSTON        CLEAR     46  45  97 CALM      30.28R
NEW BERN       PTCLDY    53  53 100 S3        30.28R
RICHLANDS      CLEAR     47  46  97 CALM      30.27R
ROCKY MOUNT    FOG       49  49 100 CALM      30.28R VSB 1/4
WASHINGTON     CLEAR     51  50  97 CALM      30.28R
WHITEVILLE     CLEAR     52  51  97 CALM      30.26R

$$

AMZ130-135-150-152-154-156-158-170-250-252-270-ANZ085-086-088-633-658-670-211100-
MARINE OBSERVATIONS

STATION/POSITION TIME  TEMP    WIND        PRES    WAVE   SWELL
                       AIR SEA DIR/SP/G            HT/PER HT/PER
                 (UTC) (F)     (DEG/KT/KT) (MB)    (FT/S) (FT/S)
CHESAPEAKE LIGHT NOT AVBL
64 E VA BEACH    0950   67 67  310/  4/  4 1025.2    2/ 8   2/ 8
DUCK             1000   65 70  330/  4/  5 1024.4
2 E DUCK         1000      69                N/A     2/ 8
OREGON INLET     1000   62 70  310/  2/  2 1024.6
13E OREGON INLT  0948      71                N/A     3/ 8   2/ 8
HATTERAS CG      1000   67 71   20/  2/  4 1024.6
DIAMOND BUOY     0950   74 80   30/  8/ 10 1024.1    3/ 9   3/ 9
CAPE LOOKOUT     1000   66     360/  7/  7 1024.4
BEAUFORT LAB     1000   62 71  360/  4/  4 1024.8
30 SE NEW RVR IN 1008   73      80/  6/ 10 1024.2
30 SE NEW RVR IN NOT AVBL
27 SE WRIGHTSVLE 1008   74 75  100/  6/ 10 1024.4
5 SE WRIGHTSVLE  1008   69 74  360/  8/ 12 1024.3
225 S CAPE HAT   0950   76 80   50/ 12/ 16 1022.5    5/ 8   3/ 8
41 SE CHARLESTON 1010   75 80   40/ 10/ 14 1022.6

$$




USA.gov is the U.S. government's official web portal to all federal, state and local government web resources and services.